Tracking 25612 objects as of 20-May-2022
HD Live streaming from Space Station
objects crossing your sky now

ONEWEB-0329

Track ONEWEB-0329 now!
10-day predictions
ONEWEB-0329 is classified as:


NORAD ID: 49107
Int'l Code: 2021-075AJ
Perigee: 1,199.4 km
Apogee: 1,202.2 km
Inclination: 87.9 °
Period: 109.3 minutes
Semi major axis: 7571 km
RCS: Unknown
Launch date: August 21, 2021
Source: United Kingdom (UK)
Launch site: TYURATAM MISSILE AND SPACE COMPLEX (TTMTR)
aabbcc
Your satellite tracking list
Your tracking list is empty




NASA's NSSDC Master Catalog

Two Line Element Set (TLE):
1 49107U 21075AJ  22140.58334491 -.00045339  00000-0 -11735+0 0  9994
2 49107  87.9048 301.7635 0001839 108.5761 141.1275 13.17670555  1308
Source of the keplerian elements: AFSPC